This demonstration page uses our WeatherBlox Daily Observations layout. Learn more.

Left ArrowRight Arrow

34.02893, -84.19858

Hourly Observations for July 9, 2018

Temp ( °F °C ) Dew Point ( °F °C ) Humidity (%) Winds ( mph kmh ) Pressure ( in mb ) Visibility ( mi km ) Precip ( " mm )
12:53 am 00:53 Clear 70 21.1 64 17.8 82 82 Calm 30.24 1024 10 16 0.00 0.00
1:53 am 01:53 Clear 70 21.1 62 16.7 76 76 VRB 3 6 30.22 1024 10 16 0.00 0.00
2:53 am 02:53 Clear 67 19.4 63 17.2 87 87 Calm 30.22 1023 10 16 0.00 0.00
3:53 am 03:53 Clear 65 18.3 63 17.2 93 93 Calm 30.22 1023 10 16 0.00 0.00
4:53 am 04:53 Clear 65 18.3 62 16.7 90 90 Calm 30.21 1023 10 16 0.00 0.00
5:53 am 05:53 Clear 67 19.4 60 15.6 79 79 Calm 30.22 1023 10 16 0.00 0.00
6:53 am 06:53 Sunny 66 18.9 60 15.6 81 81 Calm 30.23 1024 10 16 0.00 0.00
7:53 am 07:53 Sunny 70 21.1 60 15.6 71 71 Calm 30.24 1024 10 16 0.00 0.00
8:53 am 08:53 Sunny 74 23.3 60 15.6 62 62 E 3 6 30.25 1025 10 16 0.00 0.00
9:53 am 09:53 Sunny 76 24.4 60 15.6 58 58 VRB 3 6 30.26 1025 10 16 0.00 0.00
10:53 am 10:53 Sunny 79 26.1 61 16.1 54 54 Calm 30.25 1024 10 16 0.00 0.00
11:53 am 11:53 Sunny 81 27.2 63 17.2 54 54 SSE 3 6 30.25 1024 10 16 0.00 0.00
12:53 pm 12:53 Sunny 82 27.8 62 16.7 51 51 VRB 5 7 30.24 1024 10 16 0.00 0.00
1:53 pm 13:53 Sunny 85 29.4 63 17.2 48 48 Calm 30.20 1023 10 16 0.00 0.00
2:53 pm 14:53 Sunny 87 30.6 60 15.6 40 40 NW 3 6 30.19 1022 10 16 0.00 0.00
3:53 pm 15:53 Sunny 88 31.1 62 16.7 42 42 NW 7 11 30.16 1021 10 16 0.00 0.00
4:53 pm 16:53 Mostly Cloudy 87 30.6 64 17.8 46 46 VRB 3 6 30.14 1021 10 16 0.00 0.00
5:53 pm 17:53 Partly Cloudy 87 30.6 64 17.8 46 46 WNW 8 13 30.13 1020 10 16 0.00 0.00
6:53 pm 18:53 Partly Cloudy 87 30.6 65 18.3 48 48 NNE 9 15 30.12 1020 10 16 0.00 0.00
7:53 pm 19:53 Sunny 86 30 64 17.8 48 48 NNW 7 11 30.11 1020 10 16 0.00 0.00
8:53 pm 20:53 Clear 81 27.2 65 18.3 58 58 NNW 6 9 30.12 1020 10 16 0.00 0.00
9:53 pm 21:53 Clear 80 26.7 66 18.9 62 62 NNW 7 11 30.14 1021 10 16 0.00 0.00
10:53 pm 22:53 Clear 76 24.4 67 19.4 74 74 N 3 6 30.15 1021 10 16 0.00 0.00
11:53 pm 23:53 Clear 73 22.8 68 20 84 84 Calm 30.14 1021 10 16 0.00 0.00

Powered by AerisWeather